This is the latest recevied weather packets stored in our database for station/object KF0PEC-15. If no packets are shown the sender has not sent any weather packets the latest 10 day(s).
| Time | Temp. | Humidity | Pressure | Rain* | Wind** | Luminosity | Snow |
|---|---|---|---|---|---|---|---|
| 1777383296 | 3.33° C | 82% | 1021.9 hPa | 0 mm | - | 389 W/m² | - |
| 1777382745 | 3.33° C | 82% | 1021.7 hPa | 0 mm | - | 358 W/m² | - |
| 1777382226 | 3.33° C | 82% | 1021.4 hPa | 0 mm | - | 507 W/m² | - |
| 1777381650 | 3.33° C | 82% | 1021.4 hPa | 0 mm | - | 324 W/m² | - |
| 1777381115 | 2.78° C | 83% | 1021.4 hPa | 0 mm | - | 326 W/m² | - |
| 1777380565 | 2.78° C | 83% | 1021.4 hPa | 0 mm | - | 247 W/m² | - |
| 1777380085 | 2.78° C | 84% | 1021.4 hPa | 0 mm | - | 283 W/m² | - |
| 1777379565 | 2.78° C | 84% | 1021.2 hPa | 0 mm | - | 151 W/m² | - |
| 1777378970 | 2.78° C | 84% | 1021 hPa | 0 mm | - | 806 W/m² | - |
| 1777378370 | 2.78° C | 83% | 1021 hPa | 0 mm | - | 329 W/m² | - |
| 1777377855 | 2.78° C | 83% | 1020.8 hPa | 0 mm | - | 87 W/m² | - |
| 1777377365 | 2.78° C | 83% | 1020.7 hPa | 0 mm | - | 34 W/m² | - |
| 1777376820 | 2.78° C | 83% | 1020.5 hPa | 0 mm | - | 0 W/m² | - |
| 1777376245 | 3.33° C | 82% | 1020.4 hPa | 0 mm | - | 0 W/m² | - |
| 1777375710 | 3.33° C | 82% | 1020.6 hPa | 0 mm | - | 0 W/m² | - |
| 1777375135 | 3.33° C | 82% | 1020.8 hPa | 0 mm | - | 0 W/m² | - |
| 1777374635 | 3.33° C | 82% | 1020.4 hPa | 0 mm | - | 0 W/m² | - |
| 1777374085 | 3.33° C | 81% | 1020.2 hPa | 0 mm | - | 0 W/m² | - |
| 1777373510 | 3.33° C | 80% | 1020.3 hPa | 0 mm | - | 0 W/m² | - |
| 1777372955 | 3.33° C | 81% | 1020.2 hPa | 0 mm | - | 0 W/m² | - |
| 1777372445 | 3.33° C | 81% | 1020.7 hPa | 0 mm | - | 0 W/m² | - |
| 1777371900 | 3.33° C | 80% | 1020.5 hPa | 0 mm | - | 0 W/m² | - |
| 1777371390 | 3.89° C | 80% | 1020.5 hPa | 0 mm | - | 0 W/m² | - |
| 1777370865 | 3.89° C | 81% | 1020.5 hPa | 0 mm | - | 0 W/m² | - |
| 1777370310 | 3.89° C | 81% | 1020.7 hPa | 0 mm | - | 0 W/m² | - |
* Rain latest hour (hover to see other rain measurements)
** Current wind speed in m/s (hover to see current wind gust speed)